| time (UTC) | temp F | wind direction | speed MPH | gust MPH | rain 1hr in | rain 24hr in | rain mn in | humidity % | barometer mb |
| 20260504081538 | 38 | 265 | 0.0 | 0.0 | 0.00 | 0.00 | 0.00 | 81 | 1012.9 |
| 20260504050020 | 42 | 265 | 0.0 | 0.0 | 0.00 | 0.00 | 0.00 | 75 | 1013.2 |
| 20260504044517 | 43 | 265 | 0.0 | 0.0 | 0.00 | 0.00 | 0.00 | 74 | 1013.1 |
| 20260504043016 | 43 | 265 | 0.0 | 0.0 | 0.00 | 0.00 | 0.00 | 74 | 1013.0 |
| 20260504041512 | 44 | 265 | 0.0 | 0.0 | 0.00 | 0.00 | 0.00 | 71 | 1012.9 |
| 20260504040024 | 44 | 265 | 0.0 | 0.0 | 0.00 | 0.00 | 0.00 | 70 | 1012.8 |
| 20260504034509 | 45 | 265 | 0.0 | 0.0 | 0.00 | 0.00 | 0.00 | 69 | 1012.8 |
| 20260504033008 | 45 | 265 | 0.0 | 0.0 | 0.00 | 0.00 | 0.00 | 68 | 1012.7 |
| 20260504031508 | 46 | 265 | 0.0 | 0.0 | 0.00 | 0.00 | 0.00 | 67 | 1012.7 |
| 20260504030009 | 46 | 265 | 0.0 | 0.0 | 0.00 | 0.00 | 0.00 | 66 | 1012.5 |
| 20260504024508 | 47 | 265 | 0.0 | 0.0 | 0.00 | 0.00 | 0.00 | 66 | 1012.5 |
| 20260504023006 | 48 | 265 | 0.0 | 0.0 | 0.00 | 0.00 | 0.00 | 64 | 1012.5 |
| 20260504021506 | 49 | 265 | 0.0 | 0.0 | 0.00 | 0.00 | 0.00 | 61 | 1012.6 |
| 20260504020005 | 50 | 265 | 0.0 | 0.0 | 0.00 | 0.00 | 0.00 | 58 | 1012.5 |
| 20260504014516 | 51 | 265 | 0.0 | 0.0 | 0.00 | 0.00 | 0.00 | 56 | 1012.4 |
| 20260504013005 | 52 | 265 | 0.0 | 0.0 | 0.00 | 0.00 | 0.00 | 52 | 1012.2 |
| 20260504011504 | 53 | 265 | 0.0 | 0.0 | 0.00 | 0.00 | 0.00 | 49 | 1012.1 |
| 20260504010004 | 54 | 265 | 0.0 | 0.0 | 0.00 | 0.00 | 0.00 | 49 | 1012.1 |
| 20260504004504 | 55 | 265 | 0.0 | 0.0 | 0.00 | 0.00 | 0.00 | 46 | 1011.9 |
| 20260504003008 | 56 | 265 | 0.0 | 0.0 | 0.00 | 0.00 | 0.00 | 43 | 1011.8 |
| 20260504001503 | 57 | 265 | 0.0 | 0.0 | 0.00 | 0.00 | 0.00 | 42 | 1011.5 |
| 20260504000004 | 58 | 294 | 1.0 | 0.0 | 0.00 | 0.00 | 0.00 | 39 | 1011.4 |
| 20260503234505 | 58 | 279 | 1.0 | 0.0 | 0.00 | 0.00 | 0.00 | 38 | 1011.2 |
| 20260503233002 | 59 | 252 | 2.0 | 0.0 | 0.00 | 0.00 | 0.00 | 37 | 1011.1 |
| 20260503231502 | 60 | 256 | 3.0 | 0.0 | 0.00 | 0.00 | 0.00 | 35 | 1011.1 |
| 20260503230104 | 60 | 261 | 2.0 | 0.0 | 0.00 | 0.00 | 0.00 | 36 | 1011.2 |
| 20260503224600 | 61 | 233 | 4.0 | 0.0 | 0.00 | 0.00 | 0.00 | 34 | 1011.0 |
| 20260503223100 | 61 | 240 | 4.0 | 0.0 | 0.00 | 0.00 | 0.00 | 33 | 1011.0 |
| 20260503221559 | 61 | 350 | 4.0 | 0.0 | 0.00 | 0.00 | 0.00 | 32 | 1011.0 |
| 20260503220059 | 62 | 270 | 3.0 | 0.0 | 0.00 | 0.00 | 0.00 | 32 | 1011.0 |
| 20260503214558 | 62 | 277 | 3.0 | 0.0 | 0.00 | 0.00 | 0.00 | 31 | 1011.0 |
| 20260503213058 | 61 | 213 | 5.0 | 0.0 | 0.00 | 0.00 | 0.00 | 32 | 1011.0 |
| 20260503211558 | 61 | 325 | 5.0 | 0.0 | 0.00 | 0.00 | 0.00 | 31 | 1010.9 |
| 20260503210056 | 62 | 183 | 5.0 | 0.0 | 0.00 | 0.00 | 0.00 | 33 | 1010.9 |
| 20260503204556 | 61 | 250 | 5.0 | 0.0 | 0.00 | 0.00 | 0.00 | 33 | 1010.8 |
| 20260503203056 | 61 | 294 | 2.0 | 0.0 | 0.00 | 0.00 | 0.00 | 32 | 1011.1 |
| 20260503201555 | 61 | 207 | 5.0 | 0.0 | 0.00 | 0.00 | 0.00 | 32 | 1011.2 |
| 20260503200059 | 61 | 208 | 4.0 | 0.0 | 0.00 | 0.00 | 0.00 | 34 | 1011.4 |
| 20260503194551 | 60 | 273 | 4.0 | 0.0 | 0.00 | 0.00 | 0.00 | 32 | 1011.5 |
| 20260503193059 | 60 | 267 | 4.0 | 0.0 | 0.00 | 0.00 | 0.00 | 33 | 1011.8 |
| 20260503191549 | 59 | 156 | 4.0 | 0.0 | 0.00 | 0.00 | 0.00 | 33 | 1011.9 |
| 20260503190047 | 58 | 274 | 4.0 | 0.0 | 0.00 | 0.00 | 0.00 | 32 | 1012.1 |
| 20260503184546 | 58 | 305 | 4.0 | 0.0 | 0.00 | 0.00 | 0.00 | 33 | 1012.4 |
| 20260503183105 | 58 | 260 | 4.0 | 0.0 | 0.00 | 0.00 | 0.00 | 36 | 1012.5 |
| 20260503181603 | 58 | 341 | 4.0 | 0.0 | 0.00 | 0.00 | 0.00 | 36 | 1012.6 |
| 20260503180043 | 57 | 169 | 3.0 | 0.0 | 0.00 | 0.00 | 0.00 | 37 | 1012.6 |
| 20260503174542 | 56 | 266 | 4.0 | 0.0 | 0.00 | 0.00 | 0.00 | 38 | 1012.8 |
| 20260503173040 | 57 | 322 | 5.0 | 0.0 | 0.00 | 0.00 | 0.00 | 35 | 1012.8 |
| 20260503171538 | 55 | 188 | 5.0 | 0.0 | 0.00 | 0.00 | 0.00 | 39 | 1013.0 |